Regional Weather Roundup
Issued by NWS

Home | Current Version | Previous Version | Graphics & Text | Print | Product List | Glossary On
Versions: 1 2 3 4 5 6 7 8 9 10 11 12 13 14 15 16 17 18 19 20 21 22 23 24 25 26 27 28 29 30 31 32 33 34 35 36 37 38 39 40 41 42 43 44 45 46 47 48 49 50
000
ASUS43 KMKX 172359
RWRWI

WISCONSIN REGIONAL WEATHER ROUNDUP
NATIONAL WEATHER SERVICE MILWAUKEE/SULLIVAN WI
600 PM CST SUN DEC 17 2017

NOTE: "FAIR" INDICATES FEW OR NO CLOUDS BELOW 12,000 FEET WITH NO
SIGNIFICANT WEATHER AND/OR OBSTRUCTIONS TO VISIBILITY.

WIZ001-002-006>008-014>016-023>028-180100-
NORTHWEST WISCONSIN

CITY           SKY/WX    TMP DP  RH WIND       PRES   REMARKS
SUPERIOR ARPT  CLOUDY    25  21  84 CALM      29.97S
6HR MIN TEMP:  25; 6HR MAX TEMP:  27;

ASHLAND        CLOUDY    28  23  81 SW7       29.96F WCI  21
6HR MIN TEMP:  26; 6HR MAX TEMP:  29;

HAYWARD        CLOUDY    26  23  88 CALM      29.94S
6HR MIN TEMP:  25; 6HR MAX TEMP:  28;

SIREN          CLOUDY    26  24  94 NW3       29.97R FOG
CUMBERLAND     CLOUDY    27  27 100 CALM      29.95R FOG
RICE LAKE      CLOUDY    28  27  97 CALM      29.96S FOG
CHETEK         CLOUDY    28  26  94 CALM      29.95S
LADYSMITH      CLOUDY    28  26  91 CALM      29.95F
EAU CLAIRE     NOT AVBL
MENOMONIE      CLOUDY    29  27  94 SE5       29.97R WCI  24
NEW RICHMOND   CLOUDY    27  25  91 S3        29.97R FOG
OSCEOLA        CLOUDY    27  27 100 CALM      30.00R
$$

WIZ003>005-009-010-017-018-180100-
NORTH CENTRAL WISCONSIN

CITY           SKY/WX    TMP DP  RH WIND       PRES   REMARKS
MANITOWISH WTR MOCLDY    24  24 100 S3        29.91F
ARBOR VITAE    CLOUDY    26  25  94 S3        29.91F
WOODRUFF       CLOUDY    26  25  94 S3        29.91F
RHINELANDER    CLOUDY    26  25  96 S3        29.92F
6HR MIN TEMP:  26; 6HR MAX TEMP:  26;

EAGLE RIVER    CLOUDY    25  25 100 CALM      29.90F
6HR MIN TEMP:  23; 6HR MAX TEMP:  26;

LAND O LAKES   FLURRIES  25  24  96 CALM      29.93F
PHILLIPS       CLOUDY    26  25  99 S3        29.91F
6HR MIN TEMP:  25; 6HR MAX TEMP:  26;

TOMAHAWK       CLOUDY    26  24  93 CALM      29.93F FOG
MEDFORD        CLOUDY    25  24  96 CALM      29.93S FOG
MERRILL        CLOUDY    27  26  97 CALM      29.95S FOG
6HR MIN TEMP:  26; 6HR MAX TEMP:  28;

$$

WIZ029-030-035-036-043>047-180100-
CENTRAL WISCONSIN

CITY           SKY/WX    TMP DP  RH WIND       PRES   REMARKS
WAUSAU         CLOUDY    27  25  92 SE5       29.94S WCI  22
6HR MIN TEMP:  26; 6HR MAX TEMP:  27;

MOSINEE        CLOUDY    27  27 100 CALM      29.96S FOG
MARSHFIELD     CLOUDY    27  26  96 S8        29.95R FOG     WCI  19
6HR MIN TEMP:  26; 6HR MAX TEMP:  28;

STEVENS POINT  FOG       26  26 100 E3        29.97F VSB 3/4
WAUPACA        CLOUDY    30  26  85 CALM      29.99S
WAUTOMA        CLOUDY    29  27  92 N3        30.00R
6HR MIN TEMP:  29; 6HR MAX TEMP:  32;

WISC RAPIDS    CLOUDY    28  26  92 CALM      30.00R FOG
6HR MIN TEMP:  28; 6HR MAX TEMP:  29; 6HR PCP: TRACE;

CAMP DOUGLAS   NOT AVBL
$$

WIZ011>013-019>022-031-037>040-048>050-180100-
NORTHEAST WISCONSIN

CITY           SKY/WX    TMP DP  RH WIND       PRES   REMARKS
ANTIGO         CLOUDY    25  25 100 CALM      29.94F
SHAWANO        CLOUDY    29  27  92 CALM      29.99R
OCONTO         CLOUDY    30  28  91 CALM      30.00S
STURGEON BAY   CLOUDY    30  28  92 N3        30.00S
6HR MIN TEMP:  30; 6HR MAX TEMP:  33;

GREEN BAY      CLOUDY    31  27  85 SE3       30.00R
6HR MIN TEMP:  30; 6HR MAX TEMP:  32;

MANITOWOC      CLOUDY    31  29  92 NW3       30.00R FOG
6HR MIN TEMP:  30; 6HR MAX TEMP:  32;

APPLETON       CLOUDY    28  27  93 VRB5      29.97R WCI  23
CLINTONVILLE   NOT AVBL
OSHKOSH        CLOUDY    30  27  88 S3        29.99R FOG
6HR MIN TEMP:  30; 6HR MAX TEMP:  31; 6HR PCP: TRACE;

$$

WIZ032>034-041-042-053>061-180100-
SOUTHWEST WISCONSIN

CITY           SKY/WX    TMP DP  RH WIND       PRES   REMARKS
LA CROSSE      CLOUDY    32  29  88 CALM      30.00R FOG
6HR MIN TEMP:  32; 6HR MAX TEMP:  33; 6HR PCP:  0.01;

SPARTA         LGT SNOW  30  29  94 CALM      29.99S
VIROQUA        CLOUDY    30  30 100 CALM      29.96S
6HR MIN TEMP:  29; 6HR MAX TEMP:  31;

BOSCOBEL       CLOUDY    34  29  82 CALM      29.99S
6HR MIN TEMP:  34; 6HR MAX TEMP:  36;

PRAIRIE DU CHI CLOUDY    33  28  84 CALM      29.99S
PLATTEVILLE    CLOUDY    34  32  92 CALM      29.99R
$$

WIZ056-057-062-063-064-067-068-180100-
SOUTH CENTRAL WISCONSIN

CITY           SKY/WX    TMP DP  RH WIND       PRES   REMARKS
REEDSBURG      CLOUDY    32  30  94 CALM      29.98R
BARABOO/DELLS  CLOUDY    31  29  91 CALM      29.98R FOG
LONE ROCK      CLOUDY    33  31  92 CALM      29.99R FOG
6HR MIN TEMP:  33; 6HR MAX TEMP:  35;

MINERAL POINT  CLOUDY    36  34  93 CALM      29.97S
MADISON        CLOUDY    33  29  85 E3        29.98F FOG
6HR MIN TEMP:  32; 6HR MAX TEMP:  34;

MIDDLETON      CLOUDY    34  31  90 NE3       29.98S
WATERTOWN      CLOUDY    32  32 100 NE3       29.98S FOG
MONROE         CLOUDY    34  30  86 E3        29.95S
JANESVILLE     CLOUDY    36  34  93 CALM      29.98R FOG
$$

WIZ051-052-058>065-066-070>072-180100-
SOUTHEAST WISCONSIN

CITY           SKY/WX    TMP DP  RH WIND       PRES   REMARKS
MILWAUKEE      CLOUDY    36  33  89 W5        29.98R FOG     WCI  32
6HR MIN TEMP:  34; 6HR MAX TEMP:  36;

WAUKESHA       CLOUDY    30  28  93 N3        29.99R FOG
MILWAUKEE/TIMM CLOUDY    32  28  86 CALM      30.00R FOG
RACINE         CLOUDY    35  32  88 NW3       30.00R FOG
6HR MIN TEMP:  35; 6HR MAX TEMP:  36;

BURLINGTON     CLOUDY    46  46 100 CALM      29.97S FOG
KENOSHA        CLOUDY    35  31  85 N3        29.98R FOG
6HR MIN TEMP:  34; 6HR MAX TEMP:  37;

FOND DU LAC    CLOUDY    31  27  85 S3        29.99S
6HR MIN TEMP:  31; 6HR MAX TEMP:  32;

SHEBOYGAN      CLOUDY    30  30 100 W3        29.99S FOG
6HR MIN TEMP:  30; 6HR MAX TEMP:  31;

WEST BEND      CLOUDY    32  32 100 CALM      29.98S FOG
JUNEAU         CLOUDY    30  28  93 CALM      29.99S FOG
$$

LSZ147-162-180100-
LAKE SUPERIOR

STATION/POSITION TIME  TEMP    WIND        PRES    WAVE
                       AIR SEA DIR/SP/G            HT/PER
                 (UTC) (F)     (DEG/KT/KT) (MB)    (FT/S)
DEVILS ISLAND    2300   29     230/ 12/ 14 1015.3F
SAXON HARBOR     2330   29                 1014.2F
$$

LMZ867-665-643>646-180100-
LAKE MICHIGAN

STATION/POSITION TIME  TEMP    WIND        PRES    WAVE
                       AIR SEA DIR/SP/G            HT/PER
                 (UTC) (F)     (DEG/KT/KT) (MB)    (FT/S)
NORTHPORT PIER   2340   32      CALM  /  4 1015.6F
KEWAUNEE LAKESHO 2330   31     280/  1/  3 1014.9F
SHEBOYGAN LAKESH 2300   33      CALM  /  1 1016.4R
PORT WASHINGTON  2340   33     330/  3/  4 1016.6S
MILWAUKEE LAKESH 2330   35     300/  4/  5   N/A
KENOSHA   LAKESH 2300   35     350/  1/  3 1015.2
$$

TC  - TEMPERATURE IN CELSIUS
VSB - VISIBILITY IN STATUTE MILES
WCI - WIND CHILL INDEX
HX  - HEAT INDEX





USA.gov is the U.S. government's official web portal to all federal, state and local government web resources and services.